This is the latest recevied weather packets stored in our database for station/object WB5LFS-1. If no packets are shown the sender has not sent any weather packets the latest 10 day(s).
| Time | Temp. | Humidity | Pressure | Rain* | Wind** | Luminosity | Snow |
|---|---|---|---|---|---|---|---|
| 1778007408 | 28.33° C | 36% | 1013.2 hPa | 0 mm | - | - | - |
| 1778006508 | 28.33° C | 35% | 1013.3 hPa | 0 mm | - | - | - |
| 1778005608 | 28.33° C | 34% | 1013.5 hPa | 0 mm | - | - | - |
| 1778004708 | 28.33° C | 38% | 1013.7 hPa | 0 mm | - | - | - |
| 1778003808 | 28.33° C | 35% | 1013.8 hPa | 0 mm | - | - | - |
| 1778002908 | 27.78° C | 38% | 1014 hPa | 0 mm | - | - | - |
| 1778002008 | 27.78° C | 37% | 1013.9 hPa | 0 mm | - | - | - |
| 1778001108 | 27.78° C | 36% | 1013.9 hPa | 0 mm | - | - | - |
| 1778000208 | 27.22° C | 41% | 1014.2 hPa | 0 mm | - | - | - |
| 1777999308 | 26.67° C | 44% | 1014.4 hPa | 0 mm | - | - | - |
| 1777998408 | 26.67° C | 45% | 1014.7 hPa | 0 mm | - | - | - |
| 1777997508 | 26.11° C | 45% | 1014.9 hPa | 0 mm | - | - | - |
| 1777996608 | 26.11° C | 45% | 1015 hPa | 0 mm | - | - | - |
| 1777995708 | 25.56° C | 45% | 1014.9 hPa | 0 mm | - | - | - |
| 1777994808 | 24.44° C | 49% | 1015 hPa | 0 mm | - | - | - |
| 1777993908 | 23.89° C | 49% | 1014.9 hPa | 0 mm | - | - | - |
| 1777993008 | 23.89° C | 50% | 1014.9 hPa | 0 mm | - | - | - |
| 1777992108 | 23.33° C | 53% | 1015.1 hPa | 0 mm | - | - | - |
| 1777991209 | 22.22° C | 60% | 1015.1 hPa | 0 mm | - | - | - |
| 1777989408 | 21.11° C | 56% | 1015.3 hPa | 0 mm | - | - | - |
| 1777988508 | 20.56° C | 59% | 1015.4 hPa | 0 mm | - | - | - |
| 1777987608 | 20.56° C | 58% | 1015.5 hPa | 0 mm | - | - | - |
| 1777986708 | 20° C | 60% | 1015.7 hPa | 0 mm | - | - | - |
| 1777985808 | 19.44° C | 63% | 1015.5 hPa | 0 mm | - | - | - |
| 1777984908 | 18.89° C | 63% | 1015.7 hPa | 0 mm | - | - | - |
* Rain latest hour (hover to see other rain measurements)
** Current wind speed in m/s (hover to see current wind gust speed)